CAPE
2 2 2 2 2 2 3 3 2 2 2 2 3 2 2 2 4 2 1 1 0 0 0 0 0 0 0 0 0 0 0 0 0 0 0 0 0 0 3 0 0 0 0 0 43 62 176 151 134 117 130 215 798 286 738 1209 742 2250 1244 816 713 242 754 692 437 314 60 517 594 695 380 274 400 424 336 444 349 226 258 164 70 118 142 220 422 404 269 98
2 2 2 2 3 2 2 2 2 1 1 1 0 2 1 0 1 1 0 0 0 0 0 0 0 0 0 0 0 0 0 0 0 0 0 0 0 0 0 0 1 77 52 0 0 137 203 173 84 106 165 498 262 488 145 1548 856 1416 1013 1362 887 832 890 1360 569 87 126 281 632 541 225 195 267 417 487 526 292 285 170 135 244 158 146 141 223 176 92 49
2 3 2 3 2 1 0 0 1 2 2 2 3 1 1 0 0 0 0 0 0 0 0 0 0 0 0 0 0 0 0 0 0 0 26 34 1 0 0 0 66 179 0 0 0 117 28 39 111 73 198 152 343 340 222 1251 894 878 727 462 1144 598 1072 2378 2154 1400 72 446 646 653 484 243 256 438 464 354 226 251 252 178 147 118 71 111 75 53 30 123
2 2 2 1 1 1 2 2 2 2 3 1 2 2 2 3 2 1 0 0 0 0 0 0 0 0 0 0 0 0 0 0 0 0 0 18 0 0 24 0 40 171 0 0 0 106 0 0 136 96 196 244 444 198 304 815 699 732 1331 1064 756 1038 1093 2251 2266 883 247 499 724 897 648 304 320 402 706 202 319 434 299 192 186 78 75 50 51 60 156 389
2 2 2 1 2 2 2 2 2 2 2 2 1 1 2 2 1 1 1 0 0 0 0 0 0 0 0 0 0 0 0 0 0 0 9 0 0 0 34 0 209 0 0 0 0 0 0 9 64 143 116 433 237 149 336 501 499 1030 650 924 1503 720 1576 2328 2046 1054 372 748 838 730 826 541 416 562 320 256 288 221 208 155 160 108 62 76 116 192 362 413
1 2 0 2 2 2 2 2 1 2 2 1 1 2 1 1 1 0 1 1 1 0 1 0 0 0 0 0 0 0 0 0 0 0 0 4 0 95 22 0 164 19 0 0 0 0 0 0 83 167 246 221 69 155 183 221 278 774 538 1273 1616 839 1290 1630 2394 1665 820 756 553 730 745 463 661 765 459 330 297 253 219 143 126 106 82 128 188 291 390 375
0 1 2 2 2 2 2 1 1 1 1 2 2 1 1 0 1 1 1 0 0 0 0 1 0 0 0 0 0 0 0 0 0 0 1 0 0 0 0 1 34 0 0 0 0 0 0 5 80 263 230 154 108 44 37 104 248 179 502 948 1550 1640 1022 2110 2174 1585 899 682 546 681 440 769 515 540 186 281 198 255 163 158 120 112 128 181 218 304 347 380
1 2 2 1 3 2 1 2 1 1 1 1 3 2 1 1 0 0 0 0 0 0 0 0 0 0 0 0 0 0 0 0 0 0 5 59 53 0 0 0 0 0 0 0 0 0 0 1 66 146 55 67 86 17 190 258 606 1061 941 822 1266 1694 1223 1566 1647 1556 1208 898 848 751 702 688 635 289 172 38 103 94 178 172 138 118 145 178 319 372 381 470
2 2 3 2 0 1 1 2 2 1 0 1 0 2 0 1 0 1 1 1 0 0 1 0 0 0 0 0 0 0 0 0 0 0 0 0 0 0 0 0 0 0 0 0 0 0 0 0 24 57 166 15 0 0 710 650 902 739 1054 1243 1610 1613 1522 1549 1958 1812 1151 1290 1159 967 718 585 856 154 110 80 60 158 178 159 156 149 124 227 334 366 417 454
2 2 2 1 2 2 2 2 1 1 1 0 2 1 1 0 1 1 2 0 0 0 0 0 0 0 0 0 0 0 0 0 0 0 0 0 0 0 0 0 0 0 0 0 0 0 0 1 0 14 3 0 0 419 362 742 1246 748 1574 1496 1334 1263 1343 1486 2112 2115 1618 1500 1075 1130 903 881 536 681 136 135 63 94 208 167 138 168 225 210 312 388 450 478
2 2 0 1 2 2 2 2 1 1 1 1 1 1 1 1 1 1 1 1 0 0 0 0 0 0 0 0 0 0 0 0 0 0 0 0 0 0 0 0 0 0 0 0 0 0 0 0 0 0 0 0 9 496 537 983 670 1816 1263 1218 1319 1354 1328 1145 1950 1706 1799 1211 651 1066 1244 1108 280 566 142 106 55 104 232 172 153 216 242 255 316 378 505 513
1 0 0 1 1 1 2 2 1 2 0 1 1 1 2 1 0 0 0 0 0 0 0 0 0 0 0 0 0 0 0 0 0 0 0 0 0 0 0 0 0 0 0 0 0 0 0 0 0 0 0 0 0 179 572 906 1497 1711 1417 984 1138 1400 1555 1698 1724 1495 1912 1242 1687 445 763 876 309 877 143 62 54 118 216 112 144 193 258 284 344 385 568 594
1 0 2 2 1 1 2 2 1 0 1 1 1 1 1 1 1 0 0 0 0 0 0 0 0 0 0 0 0 0 0 0 0 0 0 0 0 0 0 0 0 0 0 0 0 0 0 0 0 0 0 0 0 132 1092 483 2113 1968 1609 843 1152 1066 1226 1570 1579 1221 1285 1232 2005 904 344 171 554 670 114 82 63 69 226 152 138 183 238 266 297 363 517 543
0 1 1 2 1 1 1 1 1 1 1 2 1 1 1 1 1 0 0 0 0 0 0 0 0 0 0 0 0 0 0 0 0 0 0 0 0 0 0 0 0 0 0 0 0 0 0 0 0 0 0 0 153 830 643 744 1453 1620 1639 772 752 784 887 577 1144 939 614 1221 1992 1581 378 203 307 440 231 67 83 56 74 112 126 147 208 202 245 358 533 442
0 0 1 2 1 1 1 1 1 1 0 1 0 0 0 0 0 0 0 0 0 0 0 0 0 0 33 0 0 0 0 0 0 0 0 0 0 0 0 0 0 0 0 0 0 0 0 0 0 0 0 0 0 43 302 772 1285 1013 733 709 538 833 583 853 1184 1055 928 741 1861 1390 488 209 324 482 184 198 128 41 31 51 98 76 153 124 238 312 421 423
0 1 2 1 1 0 1 1 2 2 1 0 0 0 0 0 0 0 0 0 0 0 0 0 1 0 0 0 0 0 0 0 0 0 0 0 0 0 0 0 0 0 0 0 0 0 0 0 0 0 0 0 0 141 549 144 798 918 332 505 862 1033 595 571 632 891 713 728 1657 899 697 310 105 206 144 188 261 122 25 24 51 83 80 73 156 266 298 355
2 0 2 1 1 2 1 1 1 1 1 1 0 0 0 0 0 0 0 0 0 0 0 106 0 0 0 0 0 0 0 0 0 0 0 0 0 0 0 0 0 0 0 0 0 0 0 0 0 0 0 0 0 338 618 823 396 191 92 194 429 791 536 961 888 869 1198 826 924 704 1205 432 1119 472 394 251 352 316 162 49 61 113 76 63 120 173 300 319
2 3 0 1 2 0 0 1 1 1 1 1 0 0 0 0 0 0 0 0 0 0 0 0 0 0 0 0 0 0 0 0 0 0 0 0 0 0 0 0 0 0 0 0 0 0 0 0 0 0 0 0 0 120 550 254 248 301 367 454 27 480 516 420 620 740 1144 798 951 151 361 611 912 334 496 342 420 346 336 170 117 91 116 72 75 131 325 312
1 0 1 0 1 1 1 1 0 0 1 0 0 0 0 0 0 0 0 1 0 97 0 0 0 0 0 0 0 0 0 0 0 0 0 0 0 0 0 0 0 0 0 0 0 0 0 0 0 0 0 0 0 36 427 663 218 286 531 374 104 535 783 857 846 1121 1085 296 538 310 571 583 516 421 82 354 775 607 398 318 153 123 86 60 67 124 231 415
0 1 1 1 1 1 0 0 0 1 0 0 0 0 0 160 39 0 0 3 0 0 0 0 0 0 0 0 0 0 0 0 0 0 0 0 0 0 0 0 0 0 0 0 0 0 0 0 0 0 0 0 1 35 483 332 195 371 422 586 346 380 948 1114 1096 748 783 975 323 227 395 574 376 564 475 719 791 965 631 438 254 222 100 60 49 100 198 394
2 1 1 2 0 1 1 0 0 0 1 0 0 0 0 0 0 0 0 0 0 0 0 0 0 0 0 0 0 0 0 0 0 0 0 0 0 0 0 0 0 0 0 0 0 0 0 0 0 0 5 8 0 96 397 469 640 576 609 522 392 383 493 1199 1459 1037 971 534 479 461 588 840 493 364 252 359 623 932 623 537 311 204 88 43 28 74 236 295
2 1 2 0 1 0 0 0 0 0 0 0 0 0 0 0 0 0 0 0 0 0 0 0 0 0 0 0 0 0 0 0 0 0 0 0 0 0 0 0 0 0 0 0 0 0 0 0 0 3 7 0 75 402 436 390 539 452 236 127 226 460 497 805 1679 1325 1204 532 585 968 953 1014 933 518 321 705 933 654 585 548 461 203 130 53 19 79 231 240
1 3 0 2 0 0 0 0 0 0 0 0 30 0 0 0 0 0 0 0 0 0 0 0 0 0 0 0 0 0 0 0 0 0 0 0 0 0 0 0 0 0 0 0 0 0 0 0 0 8 16 0 0 0 96 368 509 369 141 205 166 537 114 295 621 887 876 839 742 794 693 900 619 771 556 978 596 715 574 605 374 301 176 41 12 66 141 204
1 0 2 0 1 0 0 0 0 0 0 0 0 0 0 0 0 0 0 0 0 0 0 0 0 0 0 0 0 0 0 0 0 0 0 0 0 0 0 0 0 0 0 0 0 0 0 0 0 3 0 0 0 0 0 132 171 28 143 185 52 262 89 186 586 1680 1322 1063 1053 892 388 436 706 500 631 360 434 790 746 824 737 274 214 70 7 30 98 176
1 0 1 2 0 1 0 0 0 0 0 0 0 0 0 0 0 0 0 0 0 0 0 0 0 0 0 0 0 0 0 0 0 0 0 0 0 0 0 0 0 0 0 0 0 0 0 0 0 0 0 0 0 0 0 0 196 228 192 12 18 22 171 208 823 718 510 648 766 398 10 6 269 603 536 496 484 862 918 957 992 648 278 166 34 40 96 190
0 1 0 0 1 0 0 0 0 0 0 0 0 0 0 0 0 0 0 0 0 0 0 0 0 0 0 0 0 0 0 0 0 0 0 0 0 0 0 0 0 0 0 0 0 0 0 0 0 0 0 0 0 0 0 1 6 20 22 79 6 24 356 118 192 396 95 329 423 228 1 5 26 123 4 255 131 504 1105 888 823 910 492 292 99 46 53 140
0 0 1 1 1 0 0 0 0 0 0 0 0 0 0 0 0 0 0 19 0 0 0 0 0 0 0 0 0 0 0 0 0 0 0 0 0 0 0 0 0 0 0 0 0 0 0 0 0 0 0 0 0 0 0 0 0 60 217 74 29 24 165 158 232 359 322 267 389 260 58 738 12 0 1 22 15 87 603 953 821 579 866 432 192 36 71 95
0 0 1 1 0 0 0 0 0 0 0 0 0 0 0 0 0 0 0 2 0 0 0 0 0 0 0 0 0 0 0 0 0 0 0 0 0 0 0 0 0 0 0 0 0 0 0 0 0 0 0 0 0 0 0 0 0 42 28 3 11 41 133 132 420 378 318 480 615 112 96 494 525 63 190 894 308 9 619 891 865 839 834 671 249 76 40 66
0 0 1 1 0 0 0 0 0 0 0 0 0 0 0 0 0 0 3 8 0 0 0 0 0 0 0 0 0 0 0 0 0 0 0 0 0 0 0 0 0 0 0 0 0 0 0 0 0 0 0 0 0 0 0 0 0 0 0 0 0 0 0 226 287 310 670 342 428 553 265 199 532 500 451 1030 720 492 581 960 1026 978 610 710 364 111 63 61
0 0 0 1 0 0 0 0 0 0 0 0 0 0 0 0 0 0 0 0 0 0 0 0 0 0 0 0 0 0 0 0 0 0 0 0 0 0 0 0 0 0 0 0 0 0 0 0 0 0 0 0 0 0 0 0 0 0 0 2 7 5 39 460 265 106 98 87 336 160 359 260 61 361 476 752 714 718 588 875 1348 1178 948 608 608 161 44 63
0 0 0 0 0 0 0 0 0 0 0 0 0 0 0 0 0 0 0 0 0 0 0 0 0 0 0 0 0 0 0 0 0 0 0 0 0 0 0 0 0 0 0 0 0 0 0 0 0 0 0 0 0 0 0 0 0 0 0 0 0 149 138 189 152 269 302 148 171 464 425 116 141 472 431 518 448 368 603 586 559 443 505 753 767 330 80 45
0 0 0 0 0 0 0 0 0 0 0 0 0 0 0 6 16 0 0 0 0 0 0 0 0 0 0 0 0 0 0 0 0 0 0 0 0 0 0 0 0 0 0 0 0 0 0 0 0 0 0 0 0 0 0 0 0 0 0 0 0 240 263 144 261 68 350 109 248 275 368 304 77 123 556 339 334 171 467 465 453 203 220 220 575 464 233 49
0 0 0 0 0 0 0 0 0 0 0 0 0 0 0 0 0 0 0 0 0 0 0 0 0 0 0 0 0 0 0 0 0 0 0 0 0 0 0 0 0 0 0 0 0 0 0 0 0 0 0 0 0 0 0 0 0 0 0 0 0 161 288 264 147 120 169 220 113 237 392 189 167 384 180 244 335 430 210 269 40 248 299 272 282 494 384 108
0 0 0 0 0 0 0 0 0 0 0 0 0 0 0 0 0 0 0 0 0 0 0 0 0 0 0 0 0 0 0 0 0 0 0 0 0 0 0 0 0 0 0 0 0 0 6 0 0 0 0 0 0 0 0 0 0 0 0 0 0 54 302 8 43 27 125 13 0 129 206 24 110 636 517 971 441 451 763 738 584 410 390 420 202 219 463 260
0 0 0 0 0 0 0 0 0 0 0 0 0 0 0 0 0 0 0 0 0 0 0 0 0 0 0 0 0 0 0 0 0 0 0 0 0 0 0 0 0 0 0 0 0 0 1 10 4 0 0 0 0 0 0 0 0 0 0 0 0 7 116 56 7 127 184 84 57 277 80 683 294 649 808 612 882 1114 870 1076 696 698 900 535 182 163 549 443
0 1 0 0 0 0 0 0 0 0 0 0 0 0 0 0 0 0 0 0 0 0 0 0 0 0 0 0 0 0 0 0 0 0 0 0 0 0 0 0 0 0 0 0 0 0 1 3 0 0 0 0 0 0 0 0 1 0 0 1 0 0 44 96 58 154 18 197 230 102 86 203 465 204 453 270 1192 995 653 1210 318 496 1000 758 690 282 181 638
48 0 0 0 0 0 0 0 0 0 0 0 0 0 0 0 0 0 0 0 0 0 0 0 0 0 0 0 0 0 0 0 0 0 0 0 0 0 0 0 0 0 0 0 0 0 0 13 0 0 0 0 0 0 0 0 0 53 11 3 0 0 0 14 10 6 44 224 14 45 41 180 182 195 319 555 407 1009 1125 1166 987 647 976 568 702 710 669 784
0 0 0 0 0 0 0 0 0 0 0 0 0 0 0 0 0 0 0 0 0 0 0 0 0 0 0 0 0 0 0 0 0 0 0 0 2 0 0 0 0 0 0 0 0 6 0 1 5 0 0 0 0 0 0 0 0 0 135 0 2 90 15 14 4 4 59 119 28 0 0 91 374 160 394 543 686 1043 1470 1547 1300 483 385 567 775 647 1066 1080
0 0 0 0 0 0 0 0 0 0 0 0 0 0 0 0 0 0 0 0 0 0 0 0 0 0 0 0 0 0 0 2 0 0 13 2 4 0 2 0 0 0 0 0 0 0 0 0 3 0 0 1 0 0 0 0 0 0 0 0 36 2 0 0 1 1 27 27 195 154 7 6 752 470 881 860 803 1114 1401 955 913 785 672 327 551 710 995 1375
82 0 0 0 0 0 0 0 0 0 0 0 0 0 0 0 0 0 0 0 0 0 0 0 0 0 0 0 0 0 0 0 1 4 0 0 0 0 0 0 0 0 0 0 0 0 0 0 20 10 10 0 2 0 0 11 94 2 0 0 0 0 0 0 2 74 240 148 91 46 1 258 755 1144 1351 1439 1301 1343 1294 1132 1224 784 697 349 616 646 757 987
0 0 0 0 0 0 0 0 0 0 0 0 0 0 0 0 0 0 0 0 0 0 0 0 0 0 0 0 0 0 0 0 0 0 0 1 0 17 0 0 0 0 0 0 0 0 0 3 1 44 32 0 1 0 222 23 34 223 15 6 0 0 0 1 6 103 128 17 26 284 144 797 908 1153 1161 1786 1689 1359 1420 1073 955 1317 683 807 540 838 1131 1061
0 0 0 0 0 0 0 0 0 0 0 0 0 0 0 0 0 0 0 0 0 0 0 0 0 0 0 0 0 0 0 0 0 0 0 2 0 5 0 0 0 0 0 0 0 1 0 2 1 24 14 76 0 1 6 29 36 45 103 44 22 29 0 1 4 2 0 25 34 69 182 585 1071 994 1126 1712 1848 1837 1832 1546 1130 1066 995 1125 924 932 1144 879
1 0 0 0 0 0 0 0 0 0 0 0 0 0 0 0 0 0 0 0 0 0 0 0 0 0 0 0 0 0 0 1 0 0 19 0 5 0 0 0 0 0 0 0 0 0 0 0 7 19 14 0 0 21 20 3 96 123 55 19 43 41 24 2 8 7 2 61 7 2 7 755 1218 798 1506 1725 1743 2069 1557 1382 1510 1200 1298 1740 2194 1414 1435 1142
0 0 0 0 0 0 0 0 0 0 0 0 0 0 0 0 0 0 0 0 0 0 0 0 0 0 0 0 0 0 0 1 1 0 0 0 0 0 0 0 0 0 0 2 0 2 0 95 4 17 38 49 25 110 9 54 143 168 322 457 245 53 7 14 3 18 18 13 0 1 18 232 1204 1385 1367 2071 1395 1897 1400 2068 2263 2010 1420 1285 1632 2270 2090 1536
0 0 0 0 0 0 0 0 0 0 0 0 0 0 0 0 0 0 0 0 0 0 0 0 0 0 0 0 0 0 0 0 1 0 0 0 0 0 0 0 0 0 0 13 373 0 0 0 218 87 28 44 133 162 120 217 197 198 1008 370 405 356 198 112 14 106 17 86 16 32 251 439 845 1714 1887 2072 1610 1813 1951 1892 1602 1458 1788 1255 1321 1364 1508 1423
0 0 0 0 0 0 0 0 0 0 0 0 0 0 0 0 0 0 0 0 0 0 0 0 0 0 0 0 0 0 0 0 0 18 0 0 1 0 0 0 0 0 278 165 130 0 0 0 148 122 175 229 130 32 104 76 220 100 460 133 95 126 132 165 73 10 18 40 49 349 167 928 768 1056 1398 1513 1666 1920 1803 1553 1530 1325 1506 1337 1178 1236 1346 1425
0 0 0 9 0 0 0 0 0 0 0 0 0 0 0 0 0 0 0 0 0 0 0 0 0 0 0 0 0 0 0 0 0 0 0 0 9 1 0 0 0 0 204 56 120 0 0 0 212 367 185 36 9 45 332 184 377 196 147 108 282 294 241 69 12 33 696 27 125 435 814 572 1012 1064 1225 1402 1826 1742 1564 1450 1404 1308 1346 1574 1312 1259 1091 1124
0 0 0 3 34 0 0 0 0 0 0 0 0 0 0 0 0 0 0 0 0 0 0 0 0 0 0 0 0 0 0 0 1 0 0 0 0 0 0 0 0 661 55 0 0 0 0 3 596 157 116 35 86 54 241 214 87 466 412 466 453 257 256 316 36 46 286 14 0 603 1146 558 833 1226 1533 1633 1568 1365 1184 1420 1442 1308 1238 1304 1399 1556 1437 976
0 0 0 0 0 0 0 21 23 20 0 0 0 0 0 0 0 0 0 0 0 0 0 0 0 0 0 0 0 0 0 0 0 0 3 5 0 3 0 0 0 0 0 0 0 0 0 15 64 198 121 119 157 32 192 382 277 108 60 266 120 214 432 489 365 233 153 104 381 644 871 1339 1469 1537 1614 1456 1226 1298 1111 1178 1161 1156 1422 1339 1270 1354 1254 1406
0 0 0 0 0 0 0 0 0 0 0 0 0 0 0 0 0 0 0 0 0 0 0 0 0 0 0 0 0 0 0 0 2 22 0 0 0 0 2 2 12 0 0 3 0 6 0 65 132 115 218 313 292 255 179 216 22 294 10 67 54 84 134 244 394 195 131 522 660 949 1277 1670 1535 1608 1495 1146 1160 1046 1292 1067 1145 1015 1031 1030 1020 1023 1107 984
0 0 0 0 0 0 0 0 0 0 0 0 0 0 0 0 0 0 0 0 0 0 0 0 0 0 0 0 0 0 0 8 0 0 0 0 0 15 0 11 0 10 2 0 0 0 0 24 7 18 373 252 293 337 189 144 126 63 26 26 66 127 344 64 352 341 663 529 649 801 1071 1380 1562 1419 1315 1202 1060 1013 1018 940 898 935 936 974 1001 905 887 916
0 0 0 0 0 0 0 0 0 0 0 0 0 0 0 0 0 0 0 0 0 0 0 0 0 0 0 0 0 0 0 0 0 0 0 0 0 0 0 0 0 0 2 2 11 0 2 0 1 52 48 32 322 131 170 45 28 137 118 33 456 565 204 242 132 368 884 798 758 538 441 873 1624 1446 1271 990 972 978 946 905 932 940 949 914 906 866 797 736
Wind_Speed
nan nan nan nan nan nan nan nan nan nan nan nan nan nan nan nan nan nan nan nan nan nan nan nan nan nan nan nan nan nan nan nan nan nan nan nan nan nan nan nan nan nan nan nan nan nan 3 5 8 5 8 8 5 7 3 8 6 7 4 5 4 11 10 8 6 6 nan 8 10 7 5 6 7 4 4 3 5 5 6 7 nan 7 11 14 15 15 14 nan
nan nan nan nan nan nan nan nan nan nan nan nan nan nan nan nan nan nan nan nan nan nan nan nan nan nan nan nan nan nan nan nan nan nan nan nan nan nan nan nan nan nan nan nan nan 1 2 1 nan 3 8 8 2 3 5 1 7 3 5 3 5 5 1 11 3 nan 5 9 9 8 5 4 7 4 3 3 5 7 9 9 10 12 12 13 13 13 nan nan
nan nan nan nan nan nan nan nan nan nan nan nan nan nan nan nan nan nan nan nan nan nan nan nan nan nan nan nan nan nan nan nan nan nan nan nan nan nan nan nan nan 8 nan nan nan 2 nan nan 3 nan 6 8 4 4 3 3 5 5 5 5 5 2 5 1 2 3 nan 10 11 10 6 6 4 4 2 4 6 6 8 9 11 10 nan 13 nan nan nan 10
nan nan nan nan nan nan nan nan nan nan nan nan nan nan nan nan nan nan nan nan nan nan nan nan nan nan nan nan nan nan nan nan nan nan nan nan nan nan nan nan nan 7 nan nan nan 4 nan nan 4 nan 8 5 4 4 2 4 0 4 7 2 6 7 3 5 4 7 12 11 11 9 8 7 3 4 1 6 5 5 6 7 9 nan nan nan nan nan 10 8
nan nan nan nan nan nan nan nan nan nan nan nan nan nan nan nan nan nan nan nan nan nan nan nan nan nan nan nan nan nan nan nan nan nan nan nan nan nan nan nan 13 nan nan nan nan nan nan nan nan 3 7 4 6 6 5 6 7 2 2 6 1 11 5 5 5 3 11 11 10 8 6 8 6 5 5 2 2 2 4 5 9 10 nan nan 11 10 8 6
nan nan nan nan nan nan nan nan nan nan nan nan nan nan nan nan nan nan nan nan nan nan nan nan nan nan nan nan nan nan nan nan nan nan nan nan nan nan nan nan 13 nan nan nan nan nan nan nan nan 2 1 4 nan 6 9 6 3 2 3 1 9 5 7 4 7 4 8 11 12 6 8 9 6 7 7 6 5 5 4 6 10 10 nan 9 8 8 7 4
nan nan nan nan nan nan nan nan nan nan nan nan nan nan nan nan nan nan nan nan nan nan nan nan nan nan nan nan nan nan nan nan nan nan nan nan nan nan nan nan nan nan nan nan nan nan nan nan nan 4 5 4 4 nan nan 4 4 6 4 3 9 11 5 4 9 7 8 11 11 4 12 8 6 8 8 6 6 6 5 7 10 9 8 8 8 7 6 5
nan nan nan nan nan nan nan nan nan nan nan nan nan nan nan nan nan nan nan nan nan nan nan nan nan nan nan nan nan nan nan nan nan nan nan nan nan nan nan nan nan nan nan nan nan nan nan nan nan 8 nan nan nan nan 11 6 7 4 8 10 10 7 9 9 10 8 11 9 8 6 11 9 5 9 8 nan 6 nan 6 8 10 9 7 6 6 7 7 5
nan nan nan nan nan nan nan nan nan nan nan nan nan nan nan nan nan nan nan nan nan nan nan nan nan nan nan nan nan nan nan nan nan nan nan nan nan nan nan nan nan nan nan nan nan nan nan nan nan nan 14 nan nan nan 13 9 12 8 6 8 9 9 11 9 14 12 13 10 7 7 11 8 9 11 11 nan nan 7 5 8 10 8 6 5 5 7 5 4
nan nan nan nan nan nan nan nan nan nan nan nan nan nan nan nan nan nan nan nan nan nan nan nan nan nan nan nan nan nan nan nan nan nan nan nan nan nan nan nan nan nan nan nan nan nan nan nan nan nan nan nan nan 10 14 6 12 7 6 9 8 9 11 8 15 13 11 13 11 8 12 9 11 4 10 5 nan nan 6 7 9 8 5 4 5 6 4 5
nan nan nan nan nan nan nan nan nan nan nan nan nan nan nan nan nan nan nan nan nan nan nan nan nan nan nan nan nan nan nan nan nan nan nan nan nan nan nan nan nan nan nan nan nan nan nan nan nan nan nan nan nan 12 10 17 13 12 9 14 11 12 12 13 12 11 13 15 11 10 11 10 10 3 10 6 nan 7 6 6 8 7 4 3 6 6 4 5
nan nan nan nan nan nan nan nan nan nan nan nan nan nan nan nan nan nan nan nan nan nan nan nan nan nan nan nan nan nan nan nan nan nan nan nan nan nan nan nan nan nan nan nan nan nan nan nan nan nan nan nan nan 15 13 15 12 12 8 17 7 12 15 14 10 13 11 16 10 11 8 9 7 5 11 nan nan 8 5 5 7 7 5 3 4 5 4 4
nan nan nan nan nan nan nan nan nan nan nan nan nan nan nan nan nan nan nan nan nan nan nan nan nan nan nan nan nan nan nan nan nan nan nan nan nan nan nan nan nan nan nan nan nan nan nan nan nan nan nan nan nan 17 19 8 15 9 16 16 13 12 11 11 8 13 11 14 6 9 10 7 7 9 9 nan nan nan 5 3 4 5 5 4 3 4 4 5
nan nan nan nan nan nan nan nan nan nan nan nan nan nan nan nan nan nan nan nan nan nan nan nan nan nan nan nan nan nan nan nan nan nan nan nan nan nan nan nan nan nan nan nan nan nan nan nan nan nan nan nan 19 23 9 12 15 12 15 11 9 8 12 12 8 15 12 10 2 10 12 12 6 9 6 nan nan nan nan 3 3 4 6 5 3 3 3 6
nan nan nan nan nan nan nan nan nan nan nan nan nan nan nan nan nan nan nan nan nan nan nan nan nan nan nan nan nan nan nan nan nan nan nan nan nan nan nan nan nan nan nan nan nan nan nan nan nan nan nan nan nan nan 13 9 14 15 14 14 10 9 13 9 6 12 9 10 2 11 14 12 11 5 7 6 7 nan nan nan nan nan 4 5 4 3 2 4
nan nan nan nan nan nan nan nan nan nan nan nan nan nan nan nan nan nan nan nan nan nan nan nan nan nan nan nan nan nan nan nan nan nan nan nan nan nan nan nan nan nan nan nan nan nan nan nan nan nan nan nan nan 13 15 24 15 17 15 13 10 11 15 12 7 9 6 8 0 9 15 17 17 13 6 4 7 7 nan nan nan nan nan nan 5 3 1 3
nan nan nan nan nan nan nan nan nan nan nan nan nan nan nan nan nan nan nan nan nan nan nan 3 nan nan nan nan nan nan nan nan nan nan nan nan nan nan nan nan nan nan nan nan nan nan nan nan nan nan nan nan nan 13 13 15 10 9 nan 12 12 9 15 10 11 3 0 7 5 4 12 13 17 6 7 5 7 8 5 nan nan 2 nan nan 3 4 3 2
nan nan nan nan nan nan nan nan nan nan nan nan nan nan nan nan nan nan nan nan nan nan nan nan nan nan nan nan nan nan nan nan nan nan nan nan nan nan nan nan nan nan nan nan nan nan nan nan nan nan nan nan nan 12 11 14 18 16 15 15 nan 11 2 13 9 5 5 8 7 6 9 7 10 3 6 7 8 7 6 5 3 nan 3 nan nan 4 5 2
nan nan nan nan nan nan nan nan nan nan nan nan nan nan nan nan nan nan nan nan nan nan nan nan nan nan nan nan nan nan nan nan nan nan nan nan nan nan nan nan nan nan nan nan nan nan nan nan nan nan nan nan nan nan 18 19 14 12 14 18 10 7 9 12 9 7 7 11 5 7 7 11 4 8 nan 9 10 8 8 6 6 4 nan nan nan 3 5 2
nan nan nan nan nan nan nan nan nan nan nan nan nan nan nan 15 nan nan nan nan nan nan nan nan nan nan nan nan nan nan nan nan nan nan nan nan nan nan nan nan nan nan nan nan nan nan nan nan nan nan nan nan nan nan 17 9 13 12 17 14 14 14 15 15 12 8 7 8 8 10 9 14 18 12 8 12 11 11 10 6 6 5 nan nan nan 1 4 4
nan nan nan nan nan nan nan nan nan nan nan nan nan nan nan nan nan nan nan nan nan nan nan nan nan nan nan nan nan nan nan nan nan nan nan nan nan nan nan nan nan nan nan nan nan nan nan nan nan nan nan nan nan nan 14 12 12 12 16 11 16 18 13 9 12 7 6 3 13 11 9 8 16 11 14 11 13 9 10 7 5 4 nan nan nan nan 2 4
nan nan nan nan nan nan nan nan nan nan nan nan nan nan nan nan nan nan nan nan nan nan nan nan nan nan nan nan nan nan nan nan nan nan nan nan nan nan nan nan nan nan nan nan nan nan nan nan nan nan nan nan nan 16 13 14 15 28 20 15 16 20 13 11 11 12 10 16 10 11 9 10 12 17 9 7 14 11 10 8 7 5 3 nan nan nan 2 3
nan nan nan nan nan nan nan nan nan nan nan nan nan nan nan nan nan nan nan nan nan nan nan nan nan nan nan nan nan nan nan nan nan nan nan nan nan nan nan nan nan nan nan nan nan nan nan nan nan nan nan nan nan nan nan 15 14 22 17 19 20 9 9 8 7 11 8 9 13 11 9 12 15 20 21 24 14 12 11 8 8 7 5 nan nan nan 3 3
nan nan nan nan nan nan nan nan nan nan nan nan nan nan nan nan nan nan nan nan nan nan nan nan nan nan nan nan nan nan nan nan nan nan nan nan nan nan nan nan nan nan nan nan nan nan nan nan nan nan nan nan nan nan nan 16 16 nan 25 21 nan 16 nan 11 7 11 11 8 12 12 8 11 13 18 20 17 20 11 10 10 8 7 6 nan nan nan nan 2
nan nan nan nan nan nan nan nan nan nan nan nan nan nan nan nan nan nan nan nan nan nan nan nan nan nan nan nan nan nan nan nan nan nan nan nan nan nan nan nan nan nan nan nan nan nan nan nan nan nan nan nan nan nan nan nan 20 24 22 nan nan nan 9 14 13 9 5 7 7 7 nan nan 12 16 15 16 14 11 9 7 6 6 5 5 nan nan nan 3
nan nan nan nan nan nan nan nan nan nan nan nan nan nan nan nan nan nan nan nan nan nan nan nan nan nan nan nan nan nan nan nan nan nan nan nan nan nan nan nan nan nan nan nan nan nan nan nan nan nan nan nan nan nan nan nan nan nan nan nan nan nan 15 9 15 10 nan 4 8 5 nan nan nan 14 nan 9 9 10 9 5 4 6 5 5 nan nan nan 3
nan nan nan nan nan nan nan nan nan nan nan nan nan nan nan nan nan nan nan nan nan nan nan nan nan nan nan nan nan nan nan nan nan nan nan nan nan nan nan nan nan nan nan nan nan nan nan nan nan nan nan nan nan nan nan nan nan nan 26 nan nan nan 19 12 15 6 13 5 13 6 nan 10 nan nan nan nan nan nan 5 5 4 3 3 4 4 nan nan nan
nan nan nan nan nan nan nan nan nan nan nan nan nan nan nan nan nan nan nan nan nan nan nan nan nan nan nan nan nan nan nan nan nan nan nan nan nan nan nan nan nan nan nan nan nan nan nan nan nan nan nan nan nan nan nan nan nan nan nan nan nan nan 16 14 9 15 10 11 12 5 nan 4 11 nan 6 7 5 nan 3 3 3 3 3 3 3 nan nan nan
nan nan nan nan nan nan nan nan nan nan nan nan nan nan nan nan nan nan nan nan nan nan nan nan nan nan nan nan nan nan nan nan nan nan nan nan nan nan nan nan nan nan nan nan nan nan nan nan nan nan nan nan nan nan nan nan nan nan nan nan nan nan nan 17 15 13 13 11 8 5 6 6 9 12 8 6 7 7 6 5 4 3 2 3 4 4 nan nan
nan nan nan nan nan nan nan nan nan nan nan nan nan nan nan nan nan nan nan nan nan nan nan nan nan nan nan nan nan nan nan nan nan nan nan nan nan nan nan nan nan nan nan nan nan nan nan nan nan nan nan nan nan nan nan nan nan nan nan nan nan nan nan 25 17 20 nan nan 8 5 9 5 nan 4 7 3 3 7 10 9 9 8 6 6 6 5 nan nan
nan nan nan nan nan nan nan nan nan nan nan nan nan nan nan nan nan nan nan nan nan nan nan nan nan nan nan nan nan nan nan nan nan nan nan nan nan nan nan nan nan nan nan nan nan nan nan nan nan nan nan nan nan nan nan nan nan nan nan nan nan 19 20 19 17 15 13 10 10 8 6 12 9 9 6 3 6 3 6 8 8 8 7 6 8 6 nan nan
nan nan nan nan nan nan nan nan nan nan nan nan nan nan nan nan nan nan nan nan nan nan nan nan nan nan nan nan nan nan nan nan nan nan nan nan nan nan nan nan nan nan nan nan nan nan nan nan nan nan nan nan nan nan nan nan nan nan nan nan nan 19 20 19 20 nan 16 15 7 8 11 7 nan 11 11 9 4 5 4 2 2 1 1 4 8 6 7 nan
nan nan nan nan nan nan nan nan nan nan nan nan nan nan nan nan nan nan nan nan nan nan nan nan nan nan nan nan nan nan nan nan nan nan nan nan nan nan nan nan nan nan nan nan nan nan nan nan nan nan nan nan nan nan nan nan nan nan nan nan nan 18 17 19 23 21 18 15 17 5 3 11 12 14 15 10 11 7 3 2 nan 3 3 3 5 7 9 9
nan nan nan nan nan nan nan nan nan nan nan nan nan nan nan nan nan nan nan nan nan nan nan nan nan nan nan nan nan nan nan nan nan nan nan nan nan nan nan nan nan nan nan nan nan nan nan nan nan nan nan nan nan nan nan nan nan nan nan nan nan nan 23 nan nan nan 21 nan nan 22 7 nan 7 12 9 10 6 8 1 5 4 2 4 4 4 3 6 9
nan nan nan nan nan nan nan nan nan nan nan nan nan nan nan nan nan nan nan nan nan nan nan nan nan nan nan nan nan nan nan nan nan nan nan nan nan nan nan nan nan nan nan nan nan nan nan nan nan nan nan nan nan nan nan nan nan nan nan nan nan nan 24 nan nan 18 24 nan nan 15 nan 19 17 15 8 10 8 4 7 5 11 9 4 4 8 10 7 10
nan nan nan nan nan nan nan nan nan nan nan nan nan nan nan nan nan nan nan nan nan nan nan nan nan nan nan nan nan nan nan nan nan nan nan nan nan nan nan nan nan nan nan nan nan nan nan nan nan nan nan nan nan nan nan nan nan nan nan nan nan nan nan nan nan 26 nan 17 14 21 nan 18 15 12 16 18 14 17 20 14 15 12 17 8 8 10 13 13
nan nan nan nan nan nan nan nan nan nan nan nan nan nan nan nan nan nan nan nan nan nan nan nan nan nan nan nan nan nan nan nan nan nan nan nan nan nan nan nan nan nan nan nan nan nan nan nan nan nan nan nan nan nan nan nan nan nan nan nan nan nan nan nan nan nan nan 15 nan nan nan 11 11 15 15 18 20 20 12 9 14 14 18 16 12 14 17 20
nan nan nan nan nan nan nan nan nan nan nan nan nan nan nan nan nan nan nan nan nan nan nan nan nan nan nan nan nan nan nan nan nan nan nan nan nan nan nan nan nan nan nan nan nan nan nan nan nan nan nan nan nan nan nan nan nan nan 27 nan nan nan nan nan nan nan nan 16 nan nan nan nan 20 13 21 20 19 18 17 15 14 15 14 16 15 14 12 23
nan nan nan nan nan nan nan nan nan nan nan nan nan nan nan nan nan nan nan nan nan nan nan nan nan nan nan nan nan nan nan nan nan nan nan nan nan nan nan nan nan nan nan nan nan nan nan nan nan nan nan nan nan nan nan nan nan nan nan nan nan nan nan nan nan nan nan nan 18 21 nan nan 16 16 9 9 5 14 20 23 22 19 16 14 13 11 5 18
nan nan nan nan nan nan nan nan nan nan nan nan nan nan nan nan nan nan nan nan nan nan nan nan nan nan nan nan nan nan nan nan nan nan nan nan nan nan nan nan nan nan nan nan nan nan nan nan nan nan nan nan nan nan nan nan nan nan nan nan nan nan nan nan nan nan 21 19 nan nan nan 7 12 12 14 13 9 5 14 13 13 13 8 14 14 11 4 6
nan nan nan nan nan nan nan nan nan nan nan nan nan nan nan nan nan nan nan nan nan nan nan nan nan nan nan nan nan nan nan nan nan nan nan nan nan nan nan nan nan nan nan nan nan nan nan nan nan nan nan nan nan nan 21 nan nan 14 nan nan nan nan nan nan nan 23 19 nan nan 14 16 11 5 10 13 13 11 12 13 12 11 15 12 15 15 13 11 8
nan nan nan nan nan nan nan nan nan nan nan nan nan nan nan nan nan nan nan nan nan nan nan nan nan nan nan nan nan nan nan nan nan nan nan nan nan nan nan nan nan nan nan nan nan nan nan nan nan nan nan nan nan nan nan nan nan nan 17 nan nan nan nan nan nan nan nan nan nan nan 21 15 12 15 17 13 12 15 15 15 19 25 14 13 16 17 14 12
nan nan nan nan nan nan nan nan nan nan nan nan nan nan nan nan nan nan nan nan nan nan nan nan nan nan nan nan nan nan nan nan nan nan nan nan nan nan nan nan nan nan nan nan nan nan nan nan nan nan nan nan nan nan nan nan nan 16 nan nan nan nan nan nan nan nan nan nan nan nan nan 20 17 16 16 16 15 18 21 21 23 22 15 13 17 19 15 16
nan nan nan nan nan nan nan nan nan nan nan nan nan nan nan nan nan nan nan nan nan nan nan nan nan nan nan nan nan nan nan nan nan nan nan nan nan nan nan nan nan nan nan nan nan nan nan nan nan nan nan nan nan 6 nan nan 21 19 24 30 28 nan nan nan nan nan nan nan nan nan nan 18 17 10 15 16 20 19 22 19 19 20 17 9 11 17 19 19
nan nan nan nan nan nan nan nan nan nan nan nan nan nan nan nan nan nan nan nan nan nan nan nan nan nan nan nan nan nan nan nan nan nan nan nan nan nan nan nan nan nan nan nan 13 nan nan nan 15 nan nan nan 7 9 17 17 15 22 37 30 28 27 26 21 nan 24 nan nan nan nan 24 14 15 13 16 22 22 21 20 19 19 19 22 22 18 18 17 18
nan nan nan nan nan nan nan nan nan nan nan nan nan nan nan nan nan nan nan nan nan nan nan nan nan nan nan nan nan nan nan nan nan nan nan nan nan nan nan nan nan nan 21 15 11 nan nan nan 12 14 11 13 17 nan 18 nan 20 18 34 28 nan 25 25 22 nan nan nan nan nan 32 26 21 13 14 23 24 24 21 18 19 19 19 22 26 25 19 15 19
nan nan nan nan nan nan nan nan nan nan nan nan nan nan nan nan nan nan nan nan nan nan nan nan nan nan nan nan nan nan nan nan nan nan nan nan nan nan nan nan nan nan 18 nan 8 nan nan nan 15 17 10 nan nan nan 15 13 15 20 20 22 21 19 22 nan nan nan 34 nan 25 33 32 23 14 18 20 21 22 22 22 22 21 20 22 24 28 25 20 19
nan nan nan nan nan nan nan nan nan nan nan nan nan nan nan nan nan nan nan nan nan nan nan nan nan nan nan nan nan nan nan nan nan nan nan nan nan nan nan nan nan 22 nan nan nan nan nan nan 22 9 13 nan nan nan 18 12 nan 18 22 13 19 19 20 21 nan nan 27 nan nan 24 24 23 12 17 20 21 20 19 23 24 24 24 23 23 27 28 26 26
nan nan nan nan nan nan nan nan nan nan nan nan nan nan nan nan nan nan nan nan nan nan nan nan nan nan nan nan nan nan nan nan nan nan nan nan nan nan nan nan nan nan nan nan nan nan nan nan nan 10 13 13 15 nan 20 20 18 12 nan 19 2 7 5 9 10 24 22 21 34 29 31 30 24 22 21 22 21 19 21 23 25 28 29 29 30 29 28 28
nan nan nan nan nan nan nan nan nan nan nan nan nan nan nan nan nan nan nan nan nan nan nan nan nan nan nan nan nan nan nan nan nan nan nan nan nan nan nan nan nan nan nan nan nan nan nan nan 27 15 12 16 11 12 16 18 nan 22 nan nan nan nan 16 19 21 18 23 24 38 32 34 29 26 26 26 23 22 21 24 27 28 28 31 32 31 30 28 27
nan nan nan nan nan nan nan nan nan nan nan nan nan nan nan nan nan nan nan nan nan nan nan nan nan nan nan nan nan nan nan nan nan nan nan nan nan nan nan nan nan nan nan nan nan nan nan nan nan nan 12 10 10 10 8 13 24 nan nan nan nan 15 14 nan 27 27 21 21 31 32 28 21 21 24 28 26 24 25 27 27 26 27 29 30 31 30 29 28
nan nan nan nan nan nan nan nan nan nan nan nan nan nan nan nan nan nan nan nan nan nan nan nan nan nan nan nan nan nan nan nan nan nan nan nan nan nan nan nan nan nan nan nan nan nan nan nan nan nan nan nan 13 4 7 nan nan 16 13 nan 10 23 27 28 28 26 27 16 26 21 19 19 18 23 25 24 25 26 28 26 25 27 28 29 31 31 29 28
Wind_Direction
nan nan nan nan nan nan nan nan nan nan nan nan nan nan nan nan nan nan nan nan nan nan nan nan nan nan nan nan nan nan nan nan nan nan nan nan nan nan nan nan nan nan nan nan nan nan 35 57 62 75 86 89 67 69 208 69 72 42 114 105 149 128 151 180 217 216 nan 299 289 289 279 281 274 293 288 354 261 291 313 293 nan 266 251 262 280 299 302 nan
nan nan nan nan nan nan nan nan nan nan nan nan nan nan nan nan nan nan nan nan nan nan nan nan nan nan nan nan nan nan nan nan nan nan nan nan nan nan nan nan nan nan nan nan nan 316 118 39 nan 68 98 97 228 108 115 327 80 82 58 101 89 116 232 81 287 nan 300 299 303 283 288 265 262 290 308 314 323 341 314 304 294 277 266 274 291 301 nan nan
nan nan nan nan nan nan nan nan nan nan nan nan nan nan nan nan nan nan nan nan nan nan nan nan nan nan nan nan nan nan nan nan nan nan nan nan nan nan nan nan nan 272 nan nan nan 158 nan nan 143 nan 90 141 132 163 150 215 231 104 48 82 95 39 66 353 259 287 nan 311 311 292 274 273 274 277 343 321 321 336 317 320 316 303 nan 295 nan nan nan 321
nan nan nan nan nan nan nan nan nan nan nan nan nan nan nan nan nan nan nan nan nan nan nan nan nan nan nan nan nan nan nan nan nan nan nan nan nan nan nan nan nan 278 nan nan nan 147 nan nan 164 nan 124 126 113 105 90 224 159 302 98 77 341 20 342 284 269 308 307 316 312 292 282 281 274 248 266 286 314 308 314 330 325 nan nan nan nan nan 312 315
nan nan nan nan nan nan nan nan nan nan nan nan nan nan nan nan nan nan nan nan nan nan nan nan nan nan nan nan nan nan nan nan nan nan nan nan nan nan nan nan 251 nan nan nan nan nan nan nan nan 135 132 139 136 146 214 249 256 281 150 194 310 287 279 267 292 302 317 307 308 294 295 282 247 228 239 255 267 334 330 323 313 314 nan nan 315 310 308 315
nan nan nan nan nan nan nan nan nan nan nan nan nan nan nan nan nan nan nan nan nan nan nan nan nan nan nan nan nan nan nan nan nan nan nan nan nan nan nan nan 233 nan nan nan nan nan nan nan nan 146 166 127 nan 151 248 217 310 276 259 222 258 292 301 24 309 290 325 305 309 322 267 272 255 240 219 225 235 254 265 295 312 309 nan 315 308 309 308 307
nan nan nan nan nan nan nan nan nan nan nan nan nan nan nan nan nan nan nan nan nan nan nan nan nan nan nan nan nan nan nan nan nan nan nan nan nan nan nan nan nan nan nan nan nan nan nan nan nan 163 173 173 184 nan nan 181 254 241 290 312 247 291 257 328 310 335 330 318 317 310 271 264 271 259 229 252 234 240 280 305 310 309 313 316 315 314 295 293
nan nan nan nan nan nan nan nan nan nan nan nan nan nan nan nan nan nan nan nan nan nan nan nan nan nan nan nan nan nan nan nan nan nan nan nan nan nan nan nan nan nan nan nan nan nan nan nan nan 205 nan nan nan nan 240 182 252 242 247 246 288 276 320 338 309 332 316 319 309 269 270 265 269 252 248 nan 267 nan 283 305 313 314 309 318 309 298 284 297
nan nan nan nan nan nan nan nan nan nan nan nan nan nan nan nan nan nan nan nan nan nan nan nan nan nan nan nan nan nan nan nan nan nan nan nan nan nan nan nan nan nan nan nan nan nan nan nan nan nan 203 nan nan nan 229 204 237 223 209 269 287 295 315 292 312 313 312 298 276 275 273 272 250 264 248 nan nan 262 289 315 325 316 309 306 306 283 295 302
nan nan nan nan nan nan nan nan nan nan nan nan nan nan nan nan nan nan nan nan nan nan nan nan nan nan nan nan nan nan nan nan nan nan nan nan nan nan nan nan nan nan nan nan nan nan nan nan nan nan nan nan nan 220 223 217 260 260 235 251 262 293 297 297 317 308 308 309 291 264 267 265 257 249 255 250 nan nan 301 326 329 328 303 301 288 281 282 297
nan nan nan nan nan nan nan nan nan nan nan nan nan nan nan nan nan nan nan nan nan nan nan nan nan nan nan nan nan nan nan nan nan nan nan nan nan nan nan nan nan nan nan nan nan nan nan nan nan nan nan nan nan 248 240 237 232 256 265 272 285 279 286 316 318 316 329 316 306 243 234 251 272 227 255 273 nan 280 299 331 340 327 305 265 277 276 280 276
nan nan nan nan nan nan nan nan nan nan nan nan nan nan nan nan nan nan nan nan nan nan nan nan nan nan nan nan nan nan nan nan nan nan nan nan nan nan nan nan nan nan nan nan nan nan nan nan nan nan nan nan nan 244 257 247 251 267 272 267 287 301 291 307 319 323 343 322 300 248 247 254 254 233 281 nan nan 264 300 333 352 333 304 270 268 264 272 281
nan nan nan nan nan nan nan nan nan nan nan nan nan nan nan nan nan nan nan nan nan nan nan nan nan nan nan nan nan nan nan nan nan nan nan nan nan nan nan nan nan nan nan nan nan nan nan nan nan nan nan nan nan 227 250 241 264 267 274 289 313 299 297 296 304 313 318 320 288 265 220 237 241 254 287 nan nan nan 284 345 2 342 317 287 276 268 280 287
nan nan nan nan nan nan nan nan nan nan nan nan nan nan nan nan nan nan nan nan nan nan nan nan nan nan nan nan nan nan nan nan nan nan nan nan nan nan nan nan nan nan nan nan nan nan nan nan nan nan nan nan 221 242 264 261 279 280 272 289 287 285 270 292 311 318 329 331 301 184 186 225 204 216 263 nan nan nan nan 323 3 357 325 305 265 264 276 286
nan nan nan nan nan nan nan nan nan nan nan nan nan nan nan nan nan nan nan nan nan nan nan nan nan nan nan nan nan nan nan nan nan nan nan nan nan nan nan nan nan nan nan nan nan nan nan nan nan nan nan nan nan nan 245 256 275 263 275 273 261 275 264 282 307 317 332 339 90 183 194 213 209 243 266 271 270 nan nan nan nan nan 324 313 282 264 270 291
nan nan nan nan nan nan nan nan nan nan nan nan nan nan nan nan nan nan nan nan nan nan nan nan nan nan nan nan nan nan nan nan nan nan nan nan nan nan nan nan nan nan nan nan nan nan nan nan nan nan nan nan nan 228 231 237 228 228 227 234 263 268 276 298 325 324 355 332 304 161 208 202 200 144 257 253 270 250 nan nan nan nan nan nan 298 279 253 286
nan nan nan nan nan nan nan nan nan nan nan nan nan nan nan nan nan nan nan nan nan nan nan 5 nan nan nan nan nan nan nan nan nan nan nan nan nan nan nan nan nan nan nan nan nan nan nan nan nan nan nan nan nan 228 228 261 270 280 nan 247 230 236 280 273 274 195 272 347 266 214 215 194 191 165 275 254 259 257 241 nan nan 253 nan nan 315 302 275 273
nan nan nan nan nan nan nan nan nan nan nan nan nan nan nan nan nan nan nan nan nan nan nan nan nan nan nan nan nan nan nan nan nan nan nan nan nan nan nan nan nan nan nan nan nan nan nan nan nan nan nan nan nan 227 225 230 233 238 245 256 nan 253 314 287 314 315 321 344 311 301 239 178 171 176 282 281 262 250 240 229 224 nan 260 nan nan 306 297 290
nan nan nan nan nan nan nan nan nan nan nan nan nan nan nan nan nan nan nan nan nan nan nan nan nan nan nan nan nan nan nan nan nan nan nan nan nan nan nan nan nan nan nan nan nan nan nan nan nan nan nan nan nan nan 219 223 220 229 228 249 271 283 275 274 277 270 306 315 316 308 267 272 222 278 nan 276 260 234 239 230 199 213 nan nan nan 319 301 287
nan nan nan nan nan nan nan nan nan nan nan nan nan nan nan 350 nan nan nan nan nan nan nan nan nan nan nan nan nan nan nan nan nan nan nan nan nan nan nan nan nan nan nan nan nan nan nan nan nan nan nan nan nan nan 255 242 219 235 230 220 251 269 256 266 281 318 315 294 316 293 237 232 243 236 247 260 253 242 232 227 213 208 nan nan nan 287 308 296
nan nan nan nan nan nan nan nan nan nan nan nan nan nan nan nan nan nan nan nan nan nan nan nan nan nan nan nan nan nan nan nan nan nan nan nan nan nan nan nan nan nan nan nan nan nan nan nan nan nan nan nan nan nan 217 223 256 226 265 273 233 233 262 260 267 280 295 264 264 263 283 250 240 227 181 201 254 234 244 228 217 228 nan nan nan nan 303 310
nan nan nan nan nan nan nan nan nan nan nan nan nan nan nan nan nan nan nan nan nan nan nan nan nan nan nan nan nan nan nan nan nan nan nan nan nan nan nan nan nan nan nan nan nan nan nan nan nan nan nan nan nan 213 216 212 217 236 235 250 255 264 274 232 251 272 230 228 250 273 279 261 213 197 189 217 225 219 224 224 214 218 192 nan nan nan 272 313
nan nan nan nan nan nan nan nan nan nan nan nan nan nan nan nan nan nan nan nan nan nan nan nan nan nan nan nan nan nan nan nan nan nan nan nan nan nan nan nan nan nan nan nan nan nan nan nan nan nan nan nan nan nan nan 205 218 247 227 237 252 255 245 258 251 275 280 234 249 287 287 252 218 198 182 180 203 214 211 228 222 199 193 nan nan nan 246 296
nan nan nan nan nan nan nan nan nan nan nan nan nan nan nan nan nan nan nan nan nan nan nan nan nan nan nan nan nan nan nan nan nan nan nan nan nan nan nan nan nan nan nan nan nan nan nan nan nan nan nan nan nan nan nan 207 221 nan 231 216 nan 248 nan 244 257 229 232 232 231 273 277 264 234 210 189 187 163 218 204 225 237 212 196 nan nan nan nan 280
nan nan nan nan nan nan nan nan nan nan nan nan nan nan nan nan nan nan nan nan nan nan nan nan nan nan nan nan nan nan nan nan nan nan nan nan nan nan nan nan nan nan nan nan nan nan nan nan nan nan nan nan nan nan nan nan 218 232 258 nan nan nan 246 259 264 268 263 246 267 280 nan nan 251 209 198 193 179 203 217 205 235 240 207 200 nan nan nan 244
nan nan nan nan nan nan nan nan nan nan nan nan nan nan nan nan nan nan nan nan nan nan nan nan nan nan nan nan nan nan nan nan nan nan nan nan nan nan nan nan nan nan nan nan nan nan nan nan nan nan nan nan nan nan nan nan nan nan nan nan nan nan 276 252 279 262 nan 257 282 289 nan nan nan 204 nan 184 176 186 206 199 213 234 223 216 nan nan nan 246
nan nan nan nan nan nan nan nan nan nan nan nan nan nan nan nan nan nan nan nan nan nan nan nan nan nan nan nan nan nan nan nan nan nan nan nan nan nan nan nan nan nan nan nan nan nan nan nan nan nan nan nan nan nan nan nan nan nan 236 nan nan nan 225 235 275 273 246 227 267 279 nan 230 nan nan nan nan nan nan 198 199 176 210 219 244 202 nan nan nan
nan nan nan nan nan nan nan nan nan nan nan nan nan nan nan nan nan nan nan nan nan nan nan nan nan nan nan nan nan nan nan nan nan nan nan nan nan nan nan nan nan nan nan nan nan nan nan nan nan nan nan nan nan nan nan nan nan nan nan nan nan nan 219 245 238 253 241 277 274 258 nan 201 181 nan 215 237 210 nan 190 195 157 174 239 234 232 nan nan nan
nan nan nan nan nan nan nan nan nan nan nan nan nan nan nan nan nan nan nan nan nan nan nan nan nan nan nan nan nan nan nan nan nan nan nan nan nan nan nan nan nan nan nan nan nan nan nan nan nan nan nan nan nan nan nan nan nan nan nan nan nan nan nan 209 226 255 228 249 234 274 314 211 216 229 220 242 201 197 193 194 154 168 181 249 239 234 nan nan
nan nan nan nan nan nan nan nan nan nan nan nan nan nan nan nan nan nan nan nan nan nan nan nan nan nan nan nan nan nan nan nan nan nan nan nan nan nan nan nan nan nan nan nan nan nan nan nan nan nan nan nan nan nan nan nan nan nan nan nan nan nan nan 203 198 228 nan nan 211 293 331 240 nan 245 271 263 176 181 196 216 203 171 182 202 216 229 nan nan
nan nan nan nan nan nan nan nan nan nan nan nan nan nan nan nan nan nan nan nan nan nan nan nan nan nan nan nan nan nan nan nan nan nan nan nan nan nan nan nan nan nan nan nan nan nan nan nan nan nan nan nan nan nan nan nan nan nan nan nan nan 222 217 221 213 220 223 240 252 269 319 270 225 268 285 291 177 168 215 204 215 189 165 203 228 218 nan nan
nan nan nan nan nan nan nan nan nan nan nan nan nan nan nan nan nan nan nan nan nan nan nan nan nan nan nan nan nan nan nan nan nan nan nan nan nan nan nan nan nan nan nan nan nan nan nan nan nan nan nan nan nan nan nan nan nan nan nan nan nan 225 220 217 237 nan 218 218 235 288 287 238 nan 241 275 294 246 277 275 149 128 151 199 220 231 206 230 nan
nan nan nan nan nan nan nan nan nan nan nan nan nan nan nan nan nan nan nan nan nan nan nan nan nan nan nan nan nan nan nan nan nan nan nan nan nan nan nan nan nan nan nan nan nan nan nan nan nan nan nan nan nan nan nan nan nan nan nan nan nan 227 222 215 219 212 211 220 226 227 310 227 215 246 265 264 249 205 160 13 nan 30 11 304 230 231 229 240
nan nan nan nan nan nan nan nan nan nan nan nan nan nan nan nan nan nan nan nan nan nan nan nan nan nan nan nan nan nan nan nan nan nan nan nan nan nan nan nan nan nan nan nan nan nan nan nan nan nan nan nan nan nan nan nan nan nan nan nan nan nan 223 nan nan nan 206 nan nan 171 195 nan 279 249 214 232 247 262 340 283 143 237 326 354 323 251 242 241
nan nan nan nan nan nan nan nan nan nan nan nan nan nan nan nan nan nan nan nan nan nan nan nan nan nan nan nan nan nan nan nan nan nan nan nan nan nan nan nan nan nan nan nan nan nan nan nan nan nan nan nan nan nan nan nan nan nan nan nan nan nan 235 nan nan 199 199 nan nan 189 nan 200 243 253 243 288 276 298 282 293 294 309 322 353 336 319 280 252
nan nan nan nan nan nan nan nan nan nan nan nan nan nan nan nan nan nan nan nan nan nan nan nan nan nan nan nan nan nan nan nan nan nan nan nan nan nan nan nan nan nan nan nan nan nan nan nan nan nan nan nan nan nan nan nan nan nan nan nan nan nan nan nan nan 210 nan 225 197 193 nan 216 201 229 222 198 248 232 206 197 265 285 311 358 310 310 302 253
nan nan nan nan nan nan nan nan nan nan nan nan nan nan nan nan nan nan nan nan nan nan nan nan nan nan nan nan nan nan nan nan nan nan nan nan nan nan nan nan nan nan nan nan nan nan nan nan nan nan nan nan nan nan nan nan nan nan nan nan nan nan nan nan nan nan nan 211 nan nan nan 202 204 201 232 232 185 209 207 235 244 274 287 309 317 316 269 235
nan nan nan nan nan nan nan nan nan nan nan nan nan nan nan nan nan nan nan nan nan nan nan nan nan nan nan nan nan nan nan nan nan nan nan nan nan nan nan nan nan nan nan nan nan nan nan nan nan nan nan nan nan nan nan nan nan nan 222 nan nan nan nan nan nan nan nan 203 nan nan nan nan 197 214 201 190 190 192 203 212 247 269 292 293 304 312 262 214
nan nan nan nan nan nan nan nan nan nan nan nan nan nan nan nan nan nan nan nan nan nan nan nan nan nan nan nan nan nan nan nan nan nan nan nan nan nan nan nan nan nan nan nan nan nan nan nan nan nan nan nan nan nan nan nan nan nan nan nan nan nan nan nan nan nan nan nan 207 239 nan nan 200 185 201 199 183 181 199 210 204 232 262 280 290 313 265 198
nan nan nan nan nan nan nan nan nan nan nan nan nan nan nan nan nan nan nan nan nan nan nan nan nan nan nan nan nan nan nan nan nan nan nan nan nan nan nan nan nan nan nan nan nan nan nan nan nan nan nan nan nan nan nan nan nan nan nan nan nan nan nan nan nan nan 228 207 nan nan nan 218 199 182 188 197 232 203 216 219 250 234 254 278 282 299 302 228
nan nan nan nan nan nan nan nan nan nan nan nan nan nan nan nan nan nan nan nan nan nan nan nan nan nan nan nan nan nan nan nan nan nan nan nan nan nan nan nan nan nan nan nan nan nan nan nan nan nan nan nan nan nan 252 nan nan 204 nan nan nan nan nan nan nan 239 235 nan nan 226 252 247 189 199 188 208 222 230 218 244 247 265 252 264 282 289 280 257
nan nan nan nan nan nan nan nan nan nan nan nan nan nan nan nan nan nan nan nan nan nan nan nan nan nan nan nan nan nan nan nan nan nan nan nan nan nan nan nan nan nan nan nan nan nan nan nan nan nan nan nan nan nan nan nan nan nan 218 nan nan nan nan nan nan nan nan nan nan nan 243 240 226 200 188 202 219 234 232 230 250 234 235 258 264 273 281 279
nan nan nan nan nan nan nan nan nan nan nan nan nan nan nan nan nan nan nan nan nan nan nan nan nan nan nan nan nan nan nan nan nan nan nan nan nan nan nan nan nan nan nan nan nan nan nan nan nan nan nan nan nan nan nan nan nan 219 nan nan nan nan nan nan nan nan nan nan nan nan nan 245 238 208 189 198 217 237 237 225 231 240 230 223 231 257 278 276
nan nan nan nan nan nan nan nan nan nan nan nan nan nan nan nan nan nan nan nan nan nan nan nan nan nan nan nan nan nan nan nan nan nan nan nan nan nan nan nan nan nan nan nan nan nan nan nan nan nan nan nan nan 254 nan nan 219 216 220 221 209 nan nan nan nan nan nan nan nan nan nan 249 249 218 215 215 222 230 241 236 244 257 273 252 234 248 247 254
nan nan nan nan nan nan nan nan nan nan nan nan nan nan nan nan nan nan nan nan nan nan nan nan nan nan nan nan nan nan nan nan nan nan nan nan nan nan nan nan nan nan nan nan 214 nan nan nan 259 nan nan nan 265 244 236 209 214 215 235 210 210 212 221 220 nan 237 nan nan nan nan 234 222 246 234 233 228 236 232 228 239 244 246 253 260 251 243 244 252
nan nan nan nan nan nan nan nan nan nan nan nan nan nan nan nan nan nan nan nan nan nan nan nan nan nan nan nan nan nan nan nan nan nan nan nan nan nan nan nan nan nan 248 244 225 nan nan nan 241 238 220 223 230 nan 221 nan 220 210 228 215 nan 204 216 219 nan nan nan nan nan 242 243 261 271 249 229 223 231 231 232 238 240 242 248 256 258 256 265 266
nan nan nan nan nan nan nan nan nan nan nan nan nan nan nan nan nan nan nan nan nan nan nan nan nan nan nan nan nan nan nan nan nan nan nan nan nan nan nan nan nan nan 262 nan 303 nan nan nan 247 268 244 nan nan nan 248 228 214 222 228 213 206 218 209 nan nan nan 239 nan 232 227 242 250 244 233 229 221 221 228 233 232 236 238 244 247 258 266 265 269
nan nan nan nan nan nan nan nan nan nan nan nan nan nan nan nan nan nan nan nan nan nan nan nan nan nan nan nan nan nan nan nan nan nan nan nan nan nan nan nan nan 291 nan nan nan nan nan nan 244 210 251 nan nan nan 239 235 nan 236 242 226 202 195 210 199 nan nan 223 nan nan 243 253 260 257 250 237 233 234 232 235 236 233 239 244 248 254 260 264 268
nan nan nan nan nan nan nan nan nan nan nan nan nan nan nan nan nan nan nan nan nan nan nan nan nan nan nan nan nan nan nan nan nan nan nan nan nan nan nan nan nan nan nan nan nan nan nan nan nan 261 272 252 245 nan 249 224 200 223 nan 253 271 217 184 269 208 217 218 230 241 255 242 252 256 252 249 244 240 241 244 242 242 241 240 242 247 251 255 259
nan nan nan nan nan nan nan nan nan nan nan nan nan nan nan nan nan nan nan nan nan nan nan nan nan nan nan nan nan nan nan nan nan nan nan nan nan nan nan nan nan nan nan nan nan nan nan nan 274 274 274 271 264 268 257 260 nan 186 nan nan nan nan 233 242 250 224 218 221 249 255 249 249 254 260 256 252 247 247 249 244 242 240 240 242 244 248 252 256
nan nan nan nan nan nan nan nan nan nan nan nan nan nan nan nan nan nan nan nan nan nan nan nan nan nan nan nan nan nan nan nan nan nan nan nan nan nan nan nan nan nan nan nan nan nan nan nan nan nan 269 260 259 284 275 273 275 nan nan nan nan 238 241 nan 237 238 227 231 259 260 247 250 259 263 259 255 251 248 248 247 246 245 246 244 245 246 249 253
nan nan nan nan nan nan nan nan nan nan nan nan nan nan nan nan nan nan nan nan nan nan nan nan nan nan nan nan nan nan nan nan nan nan nan nan nan nan nan nan nan nan nan nan nan nan nan nan nan nan nan nan 305 42 305 nan nan 289 257 nan 168 223 224 227 230 238 248 227 247 261 266 266 271 268 266 259 255 248 247 245 247 248 247 248 249 248 249 251